Regional Weather Roundup
Issued by NWS Newport/Morehead, NC

Home | Current Version | Previous Version | Text Only | Print | Product List | Glossary On
Versions: 1 2 3 4 5 6 7 8 9 10 11 12 13 14 15 16 17 18 19 20 21 22 23 24 25 26 27 28 29 30 31 32 33 34 35 36 37 38 39 40 41 42 43 44 45 46 47 48 49 50
000
ASUS42 KMHX 230425
RWRMHX
WEATHER ROUNDUP FOR EASTERN NORTH CAROLINA
NATIONAL WEATHER SERVICE NEWPORT/MOREHEAD CITY NC
1200 AM EDT THU MAR 23 2017

NOTE: "FAIR" INDICATES FEW OR NO CLOUDS BELOW 12,000 FEET
WITH NO SIGNIFICANT WEATHER AND/OR OBSTRUCTIONS TO VISIBILITY

NCZ015>017-031-032-045>047-102-103-230500-
NORTH COAST

CITY           SKY/WX    TMP DP  RH WIND       PRES   REMARKS
EDENTON        CLEAR     35  29  78 CALM      30.45R
ELIZABETH CITY CLEAR     40  23  50 N9        30.45R
KITTY HAWK     NOT AVBL
MANTEO         CLEAR     40  29  64 NE9       30.45R

$$

NCZ045>047-081-094-103-104-230500-
CENTRAL COAST

CITY           SKY/WX    TMP DP  RH WIND       PRES   REMARKS
FRISCO         CLEAR     43  25  49 NE7       30.43R

$$

NCZ095-097-098-100-101-230500-
SOUTHERN COAST

CITY           SKY/WX    TMP DP  RH WIND       PRES   REMARKS
BEAUFORT       CLEAR     44  28  53 NE8       30.42R
CEDAR ISLAND   NOT AVBL
JACKSONVILLE   CLEAR     43  32  65 NE9       30.42R
PINEY ISLAND   CLEAR    N/A N/A N/A NE13G24   30.43R
WILMINGTON     CLEAR     42  31  64 NE9       30.41R


$$

NCZ011>013-027>030-043-044-078>080-089-090>093-098-230500-
COASTAL PLAIN

CITY           SKY/WX    TMP DP  RH WIND       PRES   REMARKS
AHOSKIE        NOT AVBL
CLINTON        PTCLDY    44  25  48 E3        30.44R
ELIZABETHTOWN  CLEAR     46  27  48 E3        30.42R
GOLDSBORO      CLEAR     43  19  38 NE7       30.42R
GREENVILLE     CLEAR     36  27  69 CALM      30.45R
HAVELOCK       NOT AVBL
KENANSVILLE    CLEAR     41  28  60 E3        30.43R
KINSTON        CLEAR     41  28  60 CALM      30.45R
NEW BERN       CLEAR     41  30  65 E6        30.45R
RICHLANDS      CLEAR     41  30  65 NE8       30.43R
ROCKY MOUNT    PTCLDY    35  25  66 CALM      30.44R
WASHINGTON     CLEAR     38  29  69 CALM      30.45R
WHITEVILLE     CLEAR     48  37  65 E7        30.40R

$$

AMZ130-135-150-152-154-156-158-170-250-252-270-ANZ085-086-088-633-658-670-230500-
MARINE OBSERVATIONS

STATION/POSITION TIME  TEMP    WIND        PRES    WAVE   SWELL
                       AIR SEA DIR/SP/G            HT/PER HT/PER
                 (UTC) (F)     (DEG/KT/KT) (MB)    (FT/S) (FT/S)
CHESAPEAKE LIGHT NOT AVBL
64 E VA BEACH    0350   42 49   10/ 21/ 27 1029.3   10/ 9   5/ 9
DUCK             0400   43 48   40/ 16/ 19 1030.1
2 E DUCK         0400      47                N/A     6/ 8   2/11
OREGON INLET     0400   42 51   30/ 12/ 14 1030.6
13E OREGON INLT  NOT AVBL
HATTERAS CG      0400   44 55   20/ 11/ 14 1030.2
DIAMOND BUOY     0350   47 74   30/ 19/ 25 1029.8   11/11   8/11
CAPE LOOKOUT     0400   47      30/ 21/ 25 1029.8
BEAUFORT LAB     0400   44 53   50/  8/ 11 1029.3
30 SE NEW RVR IN 0408   51      50/ 23/ 31 1028.6
30 SE NEW RVR IN 0413      64                N/A     8/11   3/11
27 SE WRIGHTSVLE 0408   53 63   80/ 21/ 29 1027.3
5 SE WRIGHTSVLE  0408   50 57   60/ 16/ 33 1029.4
225 S CAPE HAT   0350   62 73   20/ 25/ 31 1022.9   10/10   7/10
41 SE CHARLESTON 0350   62 66   50/ 23/ 27 1024.5    7/ 8

$$




USA.gov is the U.S. government's official web portal to all federal, state and local government web resources and services.